Time,TemperatureF,DewpointF,PressureIn,WindDirection,WindDirectionDegrees,WindSpeedMPH,WindSpeedGustMPH,Humidity,HourlyPrecipIn,Conditions,Clouds,dailyrainin,SoftwareType,DateUTC
2013-08-07 00:02:00,58.0,56.0,29.88,NE,35,0.0,-999.0,94,-99.99,,,-99.99,,2013-08-07 05:02:00,
2013-08-07 00:11:00,57.0,55.0,29.89,NE,34,0.0,-999.0,94,-99.99,,,-99.99,,2013-08-07 05:11:00,
2013-08-07 00:22:00,57.0,55.0,29.89,NE,34,0.0,-999.0,94,-99.99,,,-99.99,,2013-08-07 05:22:00,
2013-08-07 00:32:00,57.0,55.0,29.89,NE,34,0.0,-999.0,94,-99.99,,,-99.99,,2013-08-07 05:32:00,
2013-08-07 00:43:00,57.0,55.0,29.88,NE,35,0.0,-999.0,94,-99.99,,,-99.99,,2013-08-07 05:43:00,
2013-08-07 00:52:00,57.0,55.0,29.89,NE,34,0.0,-999.0,94,-99.99,,,-99.99,,2013-08-07 05:52:00,
2013-08-07 01:02:00,57.0,55.0,29.89,NE,34,0.0,-999.0,94,-99.99,,,-99.99,,2013-08-07 06:02:00,
2013-08-07 01:11:00,57.0,55.0,29.90,NE,35,0.0,-999.0,94,-99.99,,,-99.99,,2013-08-07 06:11:00,
2013-08-07 01:22:00,57.0,55.0,29.90,NE,35,0.0,-999.0,94,-99.99,,,-99.99,,2013-08-07 06:22:00,
2013-08-07 01:32:00,57.0,55.0,29.90,NE,35,0.0,-999.0,94,-99.99,,,-99.99,,2013-08-07 06:32:00,
2013-08-07 01:43:00,57.0,56.0,29.91,NE,34,0.0,-999.0,95,-99.99,,,-99.99,,2013-08-07 06:43:00,
2013-08-07 01:52:00,57.0,56.0,29.91,NE,34,0.0,-999.0,95,-99.99,,,-99.99,,2013-08-07 06:52:00,
2013-08-07 02:01:00,57.0,56.0,29.91,NE,34,0.0,-999.0,95,-99.99,,,-99.99,,2013-08-07 07:01:00,
2013-08-07 02:12:00,57.0,56.0,29.91,NE,35,0.0,-999.0,95,-99.99,,,-99.99,,2013-08-07 07:12:00,
2013-08-07 02:21:00,56.0,55.0,29.91,NE,35,0.0,-999.0,95,-99.99,,,-99.99,,2013-08-07 07:21:00,
2013-08-07 02:33:00,56.0,55.0,29.91,NE,35,0.0,-999.0,95,-99.99,,,-99.99,,2013-08-07 07:33:00,
2013-08-07 02:43:00,56.0,55.0,29.91,NE,35,0.0,-999.0,95,-99.99,,,-99.99,,2013-08-07 07:43:00,
2013-08-07 02:52:00,56.0,55.0,29.92,NE,35,0.0,-999.0,95,-99.99,,,-99.99,,2013-08-07 07:52:00,
2013-08-07 03:01:00,56.0,55.0,29.92,NE,35,0.0,-999.0,95,-99.99,,,-99.99,,2013-08-07 08:01:00,
2013-08-07 03:11:00,55.0,54.0,29.92,NE,34,0.0,-999.0,96,-99.99,,,-99.99,,2013-08-07 08:11:00,
2013-08-07 03:22:00,55.0,54.0,29.92,NE,35,0.0,-999.0,96,-99.99,,,-99.99,,2013-08-07 08:22:00,
2013-08-07 03:32:00,55.0,54.0,29.92,NE,35,0.0,-999.0,96,-99.99,,,-99.99,,2013-08-07 08:32:00,
2013-08-07 03:44:00,54.0,53.0,29.92,NE,34,0.0,-999.0,96,-99.99,,,-99.99,,2013-08-07 08:44:00,
2013-08-07 03:52:00,52.0,51.0,29.92,NE,35,0.0,-999.0,95,-99.99,,,-99.99,,2013-08-07 08:52:00,
2013-08-07 04:01:00,52.0,51.0,29.92,NE,35,0.0,-999.0,95,-99.99,,,-99.99,,2013-08-07 09:01:00,
2013-08-07 04:11:00,51.0,50.0,29.93,NE,35,0.0,-999.0,95,-99.99,,,-99.99,,2013-08-07 09:11:00,
2013-08-07 04:22:00,51.0,50.0,29.93,NE,35,0.0,-999.0,96,-99.99,,,-99.99,,2013-08-07 09:22:00,
2013-08-07 04:32:00,51.0,50.0,29.93,NE,35,0.0,-999.0,96,-99.99,,,-99.99,,2013-08-07 09:32:00,
2013-08-07 04:43:00,51.0,50.0,29.93,NE,34,0.0,-999.0,96,-99.99,,,-99.99,,2013-08-07 09:43:00,
2013-08-07 04:54:00,52.0,51.0,29.93,NE,34,0.0,-999.0,96,-99.99,,,-99.99,,2013-08-07 09:54:00,
2013-08-07 05:01:00,52.0,51.0,29.93,NE,34,0.0,-999.0,96,-99.99,,,-99.99,,2013-08-07 10:01:00,
2013-08-07 05:11:00,51.0,50.0,29.94,NE,34,0.0,-999.0,97,-99.99,,,-99.99,,2013-08-07 10:11:00,
2013-08-07 05:21:00,51.0,50.0,29.94,NE,34,0.0,-999.0,97,-99.99,,,-99.99,,2013-08-07 10:21:00,
2013-08-07 05:32:00,51.0,50.0,29.94,NE,34,0.0,-999.0,97,-99.99,,,-99.99,,2013-08-07 10:32:00,
2013-08-07 05:43:00,51.0,50.0,29.94,NE,35,0.0,-999.0,97,-99.99,,,-99.99,,2013-08-07 10:43:00,
2013-08-07 05:52:00,50.0,49.0,29.94,NE,35,0.0,-999.0,97,-99.99,,,-99.99,,2013-08-07 10:52:00,
2013-08-07 06:01:00,50.0,49.0,29.94,NE,35,0.0,-999.0,97,-99.99,,,-99.99,,2013-08-07 11:01:00,
2013-08-07 06:11:00,50.0,49.0,29.94,NE,35,0.0,-999.0,97,-99.99,,,-99.99,,2013-08-07 11:11:00,
2013-08-07 06:22:00,51.0,50.0,29.95,NE,34,0.0,-999.0,97,-99.99,,,-99.99,,2013-08-07 11:22:00,
2013-08-07 06:32:00,51.0,50.0,29.95,NE,34,0.0,-999.0,97,-99.99,,,-99.99,,2013-08-07 11:32:00,
2013-08-07 06:43:00,50.0,49.0,29.95,NE,34,0.0,-999.0,97,-99.99,,,-99.99,,2013-08-07 11:43:00,
2013-08-07 06:52:00,49.0,48.0,29.95,NE,35,0.0,-999.0,97,-99.99,,,-99.99,,2013-08-07 11:52:00,
2013-08-07 07:02:00,49.0,48.0,29.95,NE,35,0.0,-999.0,97,-99.99,,,-99.99,,2013-08-07 12:02:00,
2013-08-07 07:11:00,50.0,49.0,29.95,NE,35,0.0,-999.0,97,-99.99,,,-99.99,,2013-08-07 12:11:00,
2013-08-07 07:22:00,50.0,49.0,29.95,NE,35,0.0,-999.0,97,-99.99,,,-99.99,,2013-08-07 12:22:00,
2013-08-07 07:32:00,50.0,49.0,29.95,NE,35,0.0,-999.0,97,-99.99,,,-99.99,,2013-08-07 12:32:00,
2013-08-07 07:43:00,50.0,49.0,29.96,NE,34,0.0,-999.0,97,-99.99,,,-99.99,,2013-08-07 12:43:00,
2013-08-07 07:52:00,52.0,51.0,29.96,NE,35,0.0,-999.0,97,-99.99,,,-99.99,,2013-08-07 12:52:00,
2013-08-07 08:02:00,52.0,51.0,29.96,NE,35,0.0,-999.0,97,-99.99,,,-99.99,,2013-08-07 13:02:00,
2013-08-07 08:11:00,53.0,52.0,29.96,NE,35,1.0,-999.0,97,-99.99,,,-99.99,,2013-08-07 13:11:00,
2013-08-07 08:22:00,55.0,54.0,29.96,NE,34,1.0,-999.0,97,-99.99,,,-99.99,,2013-08-07 13:22:00,
2013-08-07 08:32:00,55.0,54.0,29.96,NE,34,1.0,-999.0,97,-99.99,,,-99.99,,2013-08-07 13:32:00,
2013-08-07 08:44:00,55.0,54.0,29.96,NW,307,3.0,-999.0,98,-99.99,,,-99.99,,2013-08-07 13:44:00,
2013-08-07 09:02:00,55.0,54.0,29.96,NNW,336,4.0,-999.0,97,-99.99,,,-99.99,,2013-08-07 14:02:00,
2013-08-07 09:11:00,54.0,53.0,29.96,WNW,300,4.0,-999.0,97,-99.99,,,-99.99,,2013-08-07 14:11:00,
2013-08-07 09:22:00,54.0,53.0,29.96,WNW,295,5.0,-999.0,98,-99.99,,,-99.99,,2013-08-07 14:22:00,
2013-08-07 09:33:00,54.0,53.0,29.96,WNW,295,5.0,-999.0,98,-99.99,,,-99.99,,2013-08-07 14:33:00,
2013-08-07 09:43:00,55.0,54.0,29.97,West,269,5.0,-999.0,97,-99.99,,,-99.99,,2013-08-07 14:43:00,
2013-08-07 09:52:00,55.0,54.0,29.97,WNW,284,5.0,-999.0,98,-99.99,,,-99.99,,2013-08-07 14:52:00,
2013-08-07 10:02:00,55.0,54.0,29.97,WNW,284,5.0,-999.0,98,-99.99,,,-99.99,,2013-08-07 15:02:00,
2013-08-07 10:12:00,55.0,54.0,29.97,WNW,288,6.0,-999.0,98,-99.99,,,-99.99,,2013-08-07 15:12:00,
2013-08-07 10:22:00,56.0,55.0,29.97,WNW,283,6.0,-999.0,98,-99.99,,,-99.99,,2013-08-07 15:22:00,
2013-08-07 10:33:00,56.0,55.0,29.97,WNW,283,6.0,-999.0,98,-99.99,,,-99.99,,2013-08-07 15:33:00,
2013-08-07 10:43:00,57.0,56.0,29.97,WNW,295,4.0,-999.0,98,-99.99,,,-99.99,,2013-08-07 15:43:00,
2013-08-07 10:53:00,58.0,57.0,29.98,WNW,299,5.0,-999.0,98,-99.99,,,-99.99,,2013-08-07 15:53:00,
2013-08-07 11:02:00,58.0,57.0,29.98,WNW,299,5.0,-999.0,98,-99.99,,,-99.99,,2013-08-07 16:02:00,
2013-08-07 11:11:00,59.0,58.0,29.98,WNW,290,5.0,-999.0,98,-99.99,,,-99.99,,2013-08-07 16:11:00,
2013-08-07 11:22:00,61.0,60.0,29.98,NNW,342,5.0,-999.0,98,-99.99,,,-99.99,,2013-08-07 16:22:00,
2013-08-07 11:33:00,61.0,60.0,29.98,NNW,342,5.0,-999.0,98,-99.99,,,-99.99,,2013-08-07 16:33:00,
2013-08-07 11:43:00,62.0,61.0,29.97,WNW,294,6.0,-999.0,95,-99.99,,,-99.99,,2013-08-07 16:43:00,
2013-08-07 11:52:00,63.0,57.0,29.96,North,5,5.0,-999.0,82,-99.99,,,-99.99,,2013-08-07 16:52:00,
2013-08-07 12:01:00,63.0,57.0,29.96,North,5,5.0,-999.0,82,-99.99,,,-99.99,,2013-08-07 17:01:00,
2013-08-07 12:11:00,64.0,55.0,29.96,North,351,5.0,-999.0,73,-99.99,,,-99.99,,2013-08-07 17:11:00,
2013-08-07 12:22:00,65.0,57.0,29.97,North,360,6.0,-999.0,76,-99.99,,,-99.99,,2013-08-07 17:22:00,
2013-08-07 12:33:00,65.0,57.0,29.97,North,360,6.0,-999.0,76,-99.99,,,-99.99,,2013-08-07 17:33:00,
2013-08-07 12:43:00,65.0,56.0,29.97,NNE,12,6.0,-999.0,73,-99.99,,,-99.99,,2013-08-07 17:43:00,
2013-08-07 12:52:00,65.0,56.0,29.97,NNE,17,5.0,-999.0,73,-99.99,,,-99.99,,2013-08-07 17:52:00,
2013-08-07 13:02:00,65.0,56.0,29.97,NNE,17,5.0,-999.0,73,-99.99,,,-99.99,,2013-08-07 18:02:00,
2013-08-07 13:11:00,65.0,56.0,29.97,NNW,346,6.0,-999.0,72,-99.99,,,-99.99,,2013-08-07 18:11:00,
2013-08-07 13:22:00,65.0,55.0,29.96,North,9,7.0,-999.0,70,-99.99,,,-99.99,,2013-08-07 18:22:00,
2013-08-07 13:32:00,65.0,55.0,29.96,North,9,7.0,-999.0,70,-99.99,,,-99.99,,2013-08-07 18:32:00,
2013-08-07 13:43:00,67.0,57.0,29.96,NNE,13,5.0,-999.0,70,-99.99,,,-99.99,,2013-08-07 18:43:00,
2013-08-07 13:52:00,65.0,55.0,29.96,NNW,343,6.0,-999.0,70,-99.99,,,-99.99,,2013-08-07 18:52:00,
2013-08-07 14:01:00,65.0,55.0,29.96,NNW,343,6.0,-999.0,70,-99.99,,,-99.99,,2013-08-07 19:01:00,
2013-08-07 14:11:00,67.0,54.0,29.97,NW,315,4.0,-999.0,64,-99.99,,,-99.99,,2013-08-07 19:11:00,
2013-08-07 14:22:00,67.0,54.0,29.96,NW,318,4.0,-999.0,64,-99.99,,,-99.99,,2013-08-07 19:22:00,
2013-08-07 14:32:00,67.0,54.0,29.96,NW,318,4.0,-999.0,64,-99.99,,,-99.99,,2013-08-07 19:32:00,
2013-08-07 14:44:00,66.0,54.0,29.96,North,355,7.0,-999.0,65,-99.99,,,-99.99,,2013-08-07 19:44:00,
2013-08-07 14:52:00,68.0,54.0,29.96,North,5,5.0,-999.0,60,-99.99,,,-99.99,,2013-08-07 19:52:00,
2013-08-07 15:02:00,68.0,54.0,29.96,North,5,5.0,-999.0,60,-99.99,,,-99.99,,2013-08-07 20:02:00,
2013-08-07 15:11:00,67.0,53.0,29.96,NNW,338,8.0,-999.0,60,-99.99,,,-99.99,,2013-08-07 20:11:00,
2013-08-07 15:22:00,67.0,52.0,29.96,North,360,6.0,-999.0,58,-99.99,,,-99.99,,2013-08-07 20:22:00,
2013-08-07 15:32:00,67.0,52.0,29.96,North,360,6.0,-999.0,58,-99.99,,,-99.99,,2013-08-07 20:32:00,
2013-08-07 15:43:00,67.0,53.0,29.97,NNW,334,3.0,-999.0,60,-99.99,,,-99.99,,2013-08-07 20:43:00,
2013-08-07 15:52:00,66.0,51.0,29.97,North,5,3.0,-999.0,59,-99.99,,,-99.99,,2013-08-07 20:52:00,
2013-08-07 16:01:00,66.0,51.0,29.97,North,5,3.0,-999.0,59,-99.99,,,-99.99,,2013-08-07 21:01:00,
2013-08-07 16:11:00,65.0,51.0,29.97,NNW,346,5.0,-999.0,61,-99.99,,,-99.99,,2013-08-07 21:11:00,
2013-08-07 16:22:00,65.0,51.0,29.97,North,360,6.0,-999.0,60,-99.99,,,-99.99,,2013-08-07 21:22:00,
2013-08-07 16:32:00,65.0,51.0,29.97,North,360,6.0,-999.0,60,-99.99,,,-99.99,,2013-08-07 21:32:00,
2013-08-07 16:43:00,65.0,50.0,29.97,North,5,5.0,-999.0,59,-99.99,,,-99.99,,2013-08-07 21:43:00,
2013-08-07 16:52:00,64.0,51.0,29.98,NNW,345,7.0,-999.0,63,-99.99,,,-99.99,,2013-08-07 21:52:00,
2013-08-07 17:01:00,64.0,51.0,29.98,NNW,345,7.0,-999.0,63,-99.99,,,-99.99,,2013-08-07 22:01:00,
2013-08-07 17:12:00,64.0,51.0,29.97,North,5,8.0,-999.0,63,-99.99,,,-99.99,,2013-08-07 22:12:00,
2013-08-07 17:22:00,64.0,52.0,29.97,North,5,5.0,-999.0,64,-99.99,,,-99.99,,2013-08-07 22:22:00,
2013-08-07 17:32:00,64.0,52.0,29.97,North,5,5.0,-999.0,64,-99.99,,,-99.99,,2013-08-07 22:32:00,
2013-08-07 17:43:00,63.0,52.0,29.98,North,350,4.0,-999.0,67,-99.99,,,-99.99,,2013-08-07 22:43:00,
2013-08-07 17:52:00,63.0,53.0,29.98,North,350,3.0,-999.0,71,-99.99,,,-99.99,,2013-08-07 22:52:00,
2013-08-07 18:01:00,63.0,53.0,29.98,North,350,3.0,-999.0,71,-99.99,,,-99.99,,2013-08-07 23:01:00,
2013-08-07 18:11:00,62.0,54.0,29.97,North,350,0.0,-999.0,75,-99.99,,,-99.99,,2013-08-07 23:11:00,
2013-08-07 18:22:00,62.0,55.0,29.97,North,350,0.0,-999.0,77,-99.99,,,-99.99,,2013-08-07 23:22:00,
2013-08-07 18:32:00,62.0,55.0,29.97,North,350,0.0,-999.0,77,-99.99,,,-99.99,,2013-08-07 23:32:00,
2013-08-07 18:43:00,62.0,55.0,29.97,North,350,0.0,-999.0,78,-99.99,,,-99.99,,2013-08-07 23:43:00,
2013-08-07 18:52:00,61.0,54.0,29.98,North,350,0.0,-999.0,78,-99.99,,,-99.99,,2013-08-07 23:52:00,
2013-08-07 19:01:00,61.0,54.0,29.98,North,350,0.0,-999.0,78,-99.99,,,-99.99,,2013-08-08 00:01:00,
2013-08-07 19:11:00,61.0,54.0,29.98,North,350,0.0,-999.0,77,-99.99,,,-99.99,,2013-08-08 00:11:00,
2013-08-07 19:22:00,61.0,54.0,29.98,North,350,0.0,-999.0,77,-99.99,,,-99.99,,2013-08-08 00:22:00,
2013-08-07 19:32:00,61.0,54.0,29.98,North,350,0.0,-999.0,77,-99.99,,,-99.99,,2013-08-08 00:32:00,
2013-08-07 19:42:00,61.0,53.0,29.98,North,350,0.0,-999.0,76,-99.99,,,-99.99,,2013-08-08 00:42:00,
2013-08-07 19:52:00,61.0,53.0,29.98,North,350,0.0,-999.0,76,-99.99,,,-99.99,,2013-08-08 00:52:00,
2013-08-07 20:02:00,62.0,55.0,29.98,North,350,0.0,-999.0,79,-99.99,,,-99.99,,2013-08-08 01:02:00,
2013-08-07 20:11:00,61.0,54.0,29.98,North,349,0.0,-999.0,78,-99.99,,,-99.99,,2013-08-08 01:11:00,
2013-08-07 20:22:00,61.0,54.0,29.98,North,349,0.0,-999.0,78,-99.99,,,-99.99,,2013-08-08 01:22:00,
2013-08-07 20:32:00,61.0,54.0,29.98,NNW,340,1.0,-999.0,77,-99.99,,,-99.99,,2013-08-08 01:32:00,
2013-08-07 20:43:00,61.0,54.0,29.98,NNW,340,1.0,-999.0,77,-99.99,,,-99.99,,2013-08-08 01:43:00,
2013-08-07 20:52:00,60.0,52.0,29.98,SSW,210,2.0,-999.0,76,-99.99,,,-99.99,,2013-08-08 01:52:00,
2013-08-07 21:02:00,60.0,52.0,29.98,SSW,210,2.0,-999.0,76,-99.99,,,-99.99,,2013-08-08 02:02:00,
2013-08-07 21:11:00,59.0,52.0,29.98,SSW,211,0.0,-999.0,79,-99.99,,,-99.99,,2013-08-08 02:11:00,
2013-08-07 21:22:00,58.0,52.0,29.99,SSW,211,0.0,-999.0,81,-99.99,,,-99.99,,2013-08-08 02:22:00,
2013-08-07 21:32:00,58.0,52.0,29.99,SSW,211,0.0,-999.0,81,-99.99,,,-99.99,,2013-08-08 02:32:00,
2013-08-07 21:42:00,57.0,52.0,29.99,SSW,211,0.0,-999.0,83,-99.99,,,-99.99,,2013-08-08 02:42:00,
2013-08-07 21:52:00,56.0,52.0,30.00,SSW,211,0.0,-999.0,85,-99.99,,,-99.99,,2013-08-08 02:52:00,
2013-08-07 22:01:00,56.0,52.0,30.00,SSW,211,0.0,-999.0,85,-99.99,,,-99.99,,2013-08-08 03:01:00,
2013-08-07 22:12:00,54.0,50.0,30.00,SSW,210,1.0,-999.0,87,-99.99,,,-99.99,,2013-08-08 03:12:00,
2013-08-07 22:22:00,53.0,50.0,29.99,SSW,211,0.0,-999.0,88,-99.99,,,-99.99,,2013-08-08 03:22:00,
2013-08-07 22:32:00,53.0,50.0,29.99,SSW,211,0.0,-999.0,88,-99.99,,,-99.99,,2013-08-08 03:32:00,
2013-08-07 22:43:00,52.0,49.0,30.00,SSW,211,0.0,-999.0,90,-99.99,,,-99.99,,2013-08-08 03:43:00,
2013-08-07 22:52:00,52.0,49.0,30.00,SSW,211,0.0,-999.0,90,-99.99,,,-99.99,,2013-08-08 03:52:00,
2013-08-07 23:01:00,51.0,48.0,30.00,SSW,211,0.0,-999.0,91,-99.99,,,-99.99,,2013-08-08 04:01:00,
2013-08-07 23:11:00,50.0,48.0,30.00,SSW,211,0.0,-999.0,92,-99.99,,,-99.99,,2013-08-08 04:11:00,
2013-08-07 23:22:00,51.0,49.0,30.00,SW,214,2.0,-999.0,93,-99.99,,,-99.99,,2013-08-08 04:22:00,
2013-08-07 23:33:00,51.0,49.0,30.00,SW,214,2.0,-999.0,93,-99.99,,,-99.99,,2013-08-08 04:33:00,
2013-08-07 23:43:00,52.0,50.0,30.00,SW,221,3.0,-999.0,94,-99.99,,,-99.99,,2013-08-08 04:43:00,
2013-08-07 23:53:00,52.0,50.0,30.00,SW,228,4.0,-999.0,93,-99.99,,,-99.99,,2013-08-08 04:53:00,